TimeMST,TemperatureF,Dew PointF,Humidity,Sea Level PressureIn,VisibilityMPH,Wind Direction,Wind SpeedMPH,Gust SpeedMPH,PrecipitationIn,Events,Conditions,WindDirDegrees,DateUTC
12:53 AM,12.0,3.0,67,30.16,10.0,East,4.6,-,N/A,,Clear,80,2012-12-11 07:53:00
1:53 AM,10.9,3.0,70,30.16,10.0,East,6.9,-,N/A,,Clear,80,2012-12-11 08:53:00
2:53 AM,9.0,1.9,73,30.17,10.0,ENE,9.2,-,N/A,,Clear,60,2012-12-11 09:53:00
3:53 AM,9.0,1.9,73,30.17,10.0,ENE,5.8,-,N/A,,Clear,60,2012-12-11 10:53:00
4:53 AM,10.0,3.0,73,30.17,10.0,ENE,8.1,-,N/A,,Clear,70,2012-12-11 11:53:00
5:53 AM,8.1,1.9,76,30.19,10.0,ENE,9.2,-,N/A,,Clear,70,2012-12-11 12:53:00
6:53 AM,8.1,1.9,76,30.22,10.0,ENE,9.2,-,N/A,,Clear,70,2012-12-11 13:53:00
7:53 AM,9.0,3.0,77,30.24,10.0,NE,5.8,-,N/A,,Clear,50,2012-12-11 14:53:00
8:53 AM,21.9,10.0,60,30.19,10.0,NE,6.9,-,N/A,,Clear,50,2012-12-11 15:53:00
9:53 AM,30.0,12.0,47,30.19,10.0,East,4.6,-,N/A,,Clear,90,2012-12-11 16:53:00
10:53 AM,36.0,12.0,37,30.17,10.0,South,5.8,-,N/A,,Clear,180,2012-12-11 17:53:00
11:53 AM,39.0,12.0,33,30.14,10.0,West,12.7,-,N/A,,Clear,280,2012-12-11 18:53:00
12:53 PM,37.9,12.9,36,30.13,10.0,West,10.4,-,N/A,,Clear,280,2012-12-11 19:53:00
1:53 PM,39.9,12.9,33,30.10,10.0,West,12.7,-,N/A,,Clear,280,2012-12-11 20:53:00
2:53 PM,39.9,12.9,33,30.09,10.0,West,9.2,-,N/A,,Clear,270,2012-12-11 21:53:00
3:53 PM,39.0,12.9,34,30.10,10.0,West,9.2,-,N/A,,Clear,260,2012-12-11 22:53:00
4:53 PM,35.1,12.0,39,30.11,10.0,WSW,3.5,-,N/A,,Clear,240,2012-12-11 23:53:00
5:53 PM,25.0,9.0,51,30.17,10.0,Calm,Calm,-,N/A,,Clear,0,2012-12-12 00:53:00
6:53 PM,21.9,8.1,55,30.19,10.0,ENE,9.2,-,N/A,,Clear,70,2012-12-12 01:53:00
7:53 PM,19.9,8.1,60,30.21,10.0,NE,10.4,-,N/A,,Clear,50,2012-12-12 02:53:00
8:53 PM,19.0,8.1,62,30.17,10.0,Calm,Calm,-,N/A,,Clear,0,2012-12-12 03:53:00
9:53 PM,15.1,6.1,68,30.15,10.0,Calm,Calm,-,N/A,,Clear,0,2012-12-12 04:53:00
10:53 PM,12.9,6.1,74,30.14,9.0,East,3.5,-,N/A,,Clear,90,2012-12-12 05:53:00
11:53 PM,12.0,5.0,73,30.14,10.0,Calm,Calm,-,N/A,,Clear,0,2012-12-12 06:53:00